Kacug, Russia
Current Conditions -  °F | °C
As of 2:00 AM on Saturday 01 Nov 2014 (Local Time) from UIII Reporting Station
Smoke Smoke  
Wind Chill:   Ceiling: Unl
Heat Index: 16°   Visibility: 2.5mi
Dew Point: 12°   Wind: 4mph
Humidity: 86%   Direction: 90°E
Pressure: 30.09"   Gusts: NA
Location:  53.97°N, 105.9°E
Report Text: UIII 311800Z 09002MPS 4000 FU NSC M09/M11 Q1019 NOSIG RMKQFE721/0962 12CLRD60
Loading
Personal Weather Stations






























Interactive Weather Map
Tropical Storm Tracking
New forecast layout! Learn more

10-Day Weather Forecast

Advertisements
Track Severe Weather on mobile